Weather History for Jasper, TX

Change the Weather History Date:

Wednesday, November 14, 2012

  Actual Average (KLFK) Record (KLFK)
Temperature  
Mean Temperature 50 °F 59 °F  
Max Temperature 63 °F 70 °F 87 °F (1910)
Min Temperature 37 °F 47 °F 25 °F (1969)
Degree Days  
Heating Degree Days 15 7  
Month to date heating degree days 82  
Since 1 July heating degree days 148  
Cooling Degree Days 0 1  
Month to date cooling degree days 24  
Year to date cooling degree days 2568  
Moisture  
Dew Point 35 °F    
Average Humidity 65    
Maximum Humidity 95    
Minimum Humidity 28    
Precipitation  
Precipitation 0.03 in 0.18 in 3.22 in (1954)
Month to date precipitation 2.43  
Year to date precipitation 41.93  
Snow  
Snow 0.00 in - - ()
Month to date snowfall  
Since 1 July snowfall  
Since 1 September snowfall  
Snow Depth -    
Sea Level Pressure  
Sea Level Pressure 30.37 in    
Wind  
Wind Speed 2 mph (North)    
Max Wind Speed 13 mph    
Max Gust Speed 16 mph    
Visibility 10 miles    
Events      
T = Trace of Precipitation, MM = Missing Value Source: NWS Daily Summary

Daily Weather History Graph

Daily Weather History Graph

Search for Another Location

Airport:

Trip Planner

Search our weather history database for the weather conditions in past years. The results will help you decide how hot, cold, wet, or windy it might be!

Date:

Astronomy

Nov. 14, 2012 Rise Set
Actual Time 6:42 AM CST 5:18 PM CST
Civil Twilight 6:16 AM CST 5:44 PM CST
Nautical Twilight 5:47 AM CST 6:13 PM CST
Astronomical Twilight 5:18 AM CST 6:42 PM CST
Moon 7:28 AM CST (11/14) 6:12 PM CST (11/14)
Length of Visible Light 11h 27m
Length of Day
10h 36m
New Moon, 1% of the Moon is Illuminated
Nov 14
New Moon
Nov 20
First Quarter
Nov 28
Full
Dec 6
Last Quarter
Dec 13
New

Hourly Weather History & Observations

Time (CST) Temp. Windchill Dew Point Humidity Pressure Visibility Wind Dir Wind Speed Gust Speed Precip Events Conditions
12:15 AM 44.4 °F - 39.7 °F 84% 30.39 in 10.0 mi Calm Calm - N/A   Clear
12:35 AM 42.6 °F - 39.2 °F 88% 30.40 in 10.0 mi Calm Calm - N/A   Clear
12:55 AM 41.5 °F - 38.8 °F 90% 30.41 in 10.0 mi Calm Calm - N/A   Clear
1:15 AM 40.5 °F - 38.3 °F 92% 30.41 in 10.0 mi Calm Calm - N/A   Clear
1:35 AM 39.9 °F - 37.4 °F 91% 30.41 in 10.0 mi Calm Calm - N/A   Clear
1:55 AM 39.2 °F - 37.2 °F 93% 30.40 in 10.0 mi Calm Calm - N/A   Clear
2:15 AM 39.2 °F - 37.4 °F 93% 30.40 in 10.0 mi Calm Calm - N/A   Clear
2:35 AM 39.7 °F - 37.4 °F 91% 30.40 in 10.0 mi Calm Calm - N/A   Clear
2:55 AM 38.8 °F - 37.2 °F 94% 30.41 in 10.0 mi Calm Calm - N/A   Scattered Clouds
3:15 AM 39.2 °F - 37.8 °F 95% 30.40 in 10.0 mi Calm Calm - N/A   Mostly Cloudy
3:35 AM 41.0 °F - 39.2 °F 93% 30.39 in 10.0 mi Calm Calm - N/A   Overcast
3:55 AM 42.3 °F 40.5 °F 39.6 °F 90% 30.38 in 10.0 mi ENE 3.5 mph - N/A   Overcast
4:15 AM 43.3 °F 40.7 °F 39.6 °F 87% 30.36 in 10.0 mi NE 4.6 mph - N/A   Overcast
4:35 AM 45.0 °F 42.6 °F 37.9 °F 76% 30.37 in 10.0 mi ENE 4.6 mph - N/A   Overcast
4:55 AM 45.7 °F 43.4 °F 36.7 °F 71% 30.38 in 10.0 mi NE 4.6 mph - N/A   Overcast
5:15 AM 45.9 °F 43.6 °F 35.4 °F 67% 30.38 in 10.0 mi NE 4.6 mph - N/A   Overcast
5:35 AM 45.5 °F 43.2 °F 35.4 °F 68% 30.38 in 10.0 mi NNE 4.6 mph - N/A   Mostly Cloudy
6:15 AM 44.6 °F - 35.4 °F 70% 30.40 in 10.0 mi Calm Calm - N/A   Scattered Clouds
6:35 AM 42.8 °F - 36.7 °F 79% 30.40 in 10.0 mi Calm Calm - N/A   Clear
6:55 AM 41.4 °F - 36.9 °F 84% 30.41 in 10.0 mi Calm Calm - N/A   Clear
7:15 AM 40.1 °F - 36.7 °F 88% 30.42 in 10.0 mi Calm Calm - N/A   Clear
7:35 AM 40.6 °F - 37.6 °F 89% 30.42 in 10.0 mi Calm Calm - N/A   Clear
7:55 AM 42.8 °F - 38.5 °F 85% 30.42 in 10.0 mi Calm Calm - N/A   Clear
8:15 AM 46.0 °F 43.9 °F 37.8 °F 73% 30.42 in 10.0 mi NE 4.6 mph - N/A   Clear
8:35 AM 49.1 °F - 37.6 °F 64% 30.42 in 10.0 mi NE 4.6 mph - N/A   Clear
8:55 AM 51.8 °F - 36.0 °F 55% 30.42 in 10.0 mi ENE 6.9 mph - N/A   Clear
9:15 AM 52.9 °F - 35.1 °F 51% 30.42 in 10.0 mi Calm Calm - N/A   Clear
9:35 AM 54.3 °F - 33.8 °F 46% 30.42 in 10.0 mi NNE 3.5 mph - N/A   Clear
9:55 AM 55.6 °F - 32.7 °F 42% 30.43 in 10.0 mi Calm Calm - N/A   Clear
10:15 AM 57.0 °F - 32.2 °F 39% 30.42 in 10.0 mi ENE 3.5 mph - N/A   Clear
10:35 AM 57.9 °F - 31.5 °F 37% 30.41 in 10.0 mi Calm Calm - N/A   Clear
10:55 AM 59.0 °F - 30.9 °F 35% 30.41 in 10.0 mi ENE 4.6 mph - N/A   Clear
11:15 AM 60.3 °F - 30.9 °F 33% 30.40 in 10.0 mi NNW 9.2 mph - N/A   Clear
11:35 AM 61.3 °F - 30.0 °F 31% 30.39 in 10.0 mi North 9.2 mph - N/A   Clear
11:55 AM 61.5 °F - 30.6 °F 31% 30.38 in 10.0 mi NW 9.2 mph - N/A   Clear
12:15 PM 62.2 °F - 30.0 °F 30% 30.37 in 10.0 mi NNW 11.5 mph - N/A   Clear
12:35 PM 62.2 °F - 30.4 °F 30% 30.36 in 10.0 mi North 9.2 mph - N/A   Clear
12:55 PM - - - N/A% - - North - - N/A   Unknown
1:15 PM 62.8 °F - 30.0 °F 29% 30.36 in 10.0 mi NNW 11.5 mph - N/A   Clear
1:35 PM - - - N/A% - - North - - N/A   Unknown
1:55 PM 63.9 °F - 31.1 °F 29% 30.34 in - NNW 12.7 mph - 0.03 in   Clear
2:15 PM 63.7 °F - 30.7 °F 29% 30.33 in 10.0 mi North 10.4 mph 16.1 mph N/A   Clear
2:35 PM 63.7 °F - 30.2 °F 28% 30.32 in 10.0 mi NNW 10.4 mph - N/A   Clear
2:55 PM 63.9 °F - 30.2 °F 28% 30.32 in 10.0 mi North 6.9 mph - N/A   Clear
3:15 PM - - - N/A% 30.32 in 10.0 mi North 8.1 mph - N/A   Clear
3:35 PM 63.5 °F - 30.7 °F 29% 30.31 in 10.0 mi North 6.9 mph - N/A   Clear
3:55 PM 63.3 °F - 30.9 °F 30% 30.31 in 10.0 mi North 9.2 mph - N/A   Clear
4:15 PM 62.6 °F - 31.3 °F 31% 30.31 in 10.0 mi NNW 8.1 mph - N/A   Clear
4:35 PM 61.7 °F - 31.8 °F 33% 30.31 in 10.0 mi NNW 5.8 mph - N/A   Clear
4:55 PM 60.6 °F - 31.3 °F 33% 30.31 in 10.0 mi North 8.1 mph - N/A   Clear
5:15 PM 58.1 °F - 31.6 °F 37% 30.31 in 10.0 mi North 5.8 mph - N/A   Clear
5:35 PM 55.6 °F - 33.3 °F 43% 30.32 in 10.0 mi Calm Calm - N/A   Clear
5:55 PM 52.3 °F - 35.1 °F 52% 30.32 in 10.0 mi NNE 3.5 mph - N/A   Clear
6:15 PM 49.8 °F - 36.7 °F 61% 30.32 in 10.0 mi Calm Calm - N/A   Clear
6:35 PM 50.2 °F - 36.3 °F 59% 30.33 in 10.0 mi Calm Calm - N/A   Clear
6:55 PM 48.7 °F - 36.0 °F 61% 30.33 in 10.0 mi NNE 4.6 mph - N/A   Clear
7:15 PM 46.0 °F 44.8 °F 36.1 °F 68% 30.33 in 10.0 mi North 3.5 mph - N/A   Clear
7:35 PM 44.6 °F - 36.7 °F 74% 30.34 in 10.0 mi Calm Calm - N/A   Clear
7:55 PM 45.0 °F - 37.0 °F 74% 30.34 in 10.0 mi Calm Calm - N/A   Clear
8:55 PM 43.2 °F - 37.2 °F 80% 30.35 in 10.0 mi Calm Calm - N/A   Clear
9:15 PM 41.9 °F - 38.3 °F 87% 30.35 in 10.0 mi Calm Calm - N/A   Clear
9:35 PM 40.6 °F - 37.8 °F 89% 30.35 in 10.0 mi Calm Calm - N/A   Clear
9:55 PM 40.3 °F - 37.2 °F 89% 30.35 in 10.0 mi Calm Calm - N/A   Clear
10:15 PM 39.9 °F - 37.4 °F 91% 30.35 in 10.0 mi Calm Calm - N/A   Clear
10:35 PM 39.2 °F - 36.7 °F 91% 30.35 in 10.0 mi Calm Calm - N/A   Clear
10:55 PM 38.5 °F - 36.3 °F 92% 30.35 in 10.0 mi Calm Calm - N/A   Clear
11:15 PM 37.8 °F - 35.8 °F 93% 30.34 in 10.0 mi Calm Calm - N/A   Clear
11:35 PM 37.6 °F - 36.1 °F 95% 30.34 in 10.0 mi Calm Calm - N/A   Clear
11:55 PM 37.4 °F - 36.1 °F 95% 30.34 in 10.0 mi Calm Calm - N/A   Clear